Location: New York
(40.7127°N, 74.0060°W)
Time: 18:24:40
(UTC-04:00)

UNISAT 6 - Pass Details

Date: 29 April 2024
Orbit: 593 x 667 km, 97.7° (Epoch: 27 May)

Event Time Altitude Azimuth Distance (km) Brightness Sun altitude
Rises 03:45:02 0° 127° (SE) 2,898 ? -21.8°
Reaches altitude 10° 03:47:51 10° 107° (ESE) 1,982 ? -21.5°
Maximum altitude 03:50:39 17° 66° (ENE) 1,547 ? -21.1°
Drops below altitude 10° 03:53:27 10° 25° (NNE) 1,964 ? -20.7°
Sets 03:56:13 0° 6° (N) 2,861 ? -20.3°
